Weather History for Jackson, MN

Change the Weather History Date:

Wednesday, January 29, 2014

  Actual Average Record
Temperature  
Mean Temperature 18 °F -  
Max Temperature 37 °F 24 °F 37 °F (2014)
Min Temperature 0 °F 10 °F -18 °F (2004)
Degree Days  
Heating Degree Days 46    
Moisture  
Dew Point 4 °F    
Average Humidity 52    
Maximum Humidity 72    
Minimum Humidity 36    
Precipitation  
Precipitation 0.00 in - - ()
Sea Level Pressure  
Sea Level Pressure 29.80 in    
Wind  
Wind Speed 13 mph (SSW)    
Max Wind Speed 25 mph    
Max Gust Speed 33 mph    
Visibility 10 miles    
Events      
Averages and records for this station are not official NWS values.
T = Trace of Precipitation, MM = Missing Value Source: NWS Daily Summary

Daily Weather History Graph

Daily Weather History Graph

Search for Another Location

Airport:

Trip Planner

Search our weather history database for the weather conditions in past years. The results will help you decide how hot, cold, wet, or windy it might be!

Date:

Astronomy

Jan. 29, 2014 Rise Set
Actual Time 7:39 AM CST 5:27 PM CST
Civil Twilight 7:08 AM CST 5:57 PM CST
Nautical Twilight 6:34 AM CST 6:32 PM CST
Astronomical Twilight 6:00 AM CST 7:06 PM CST
Moon 6:17 AM CST 4:27 PM CST
Length of Visible Light 10h 48m
Length of Day
9h 47m
Waning Crescent, 2% of the Moon is Illuminated
Jan 29
Waning Crescent
Jan 30
New
Feb 6
First Quarter
Feb 14
Full
Feb 22
Last Quarter

Hourly Weather History & Observations

Time (CST) Temp. Windchill Dew Point Humidity Pressure Visibility Wind Dir Wind Speed Gust Speed Precip Events Conditions
12:13 AM -0.4 °F -14.7 °F -9.4 °F 66% 30.09 in 10.0 mi SW 8.1 mph - N/A   Clear
12:32 AM -0.4 °F -14.7 °F -7.6 °F 72% 30.08 in 10.0 mi SW 8.1 mph - N/A   Clear
12:53 AM 1.4 °F -12.5 °F -7.6 °F 66% 30.08 in 10.0 mi SW 8.1 mph - N/A   Clear
1:13 AM -0.4 °F -15.7 °F -7.6 °F 72% 30.08 in 10.0 mi SW 9.2 mph - N/A   Clear
1:32 AM -0.4 °F -15.7 °F -7.6 °F 72% 30.08 in 10.0 mi SW 9.2 mph - N/A   Clear
1:53 AM -0.4 °F -17.6 °F -7.6 °F 72% 30.07 in 10.0 mi SW 11.5 mph - N/A   Clear
2:13 AM -0.4 °F -16.7 °F -7.6 °F 72% 30.07 in 10.0 mi SW 10.4 mph - N/A   Clear
2:32 AM -0.4 °F -17.6 °F -9.4 °F 66% 30.06 in 10.0 mi SW 11.5 mph - N/A   Clear
2:53 AM -0.4 °F -17.6 °F -9.4 °F 66% 30.06 in 10.0 mi SW 11.5 mph - N/A   Clear
3:13 AM 1.4 °F -15.3 °F -7.6 °F 66% 30.05 in 10.0 mi SW 11.5 mph - N/A   Clear
3:32 AM 1.4 °F -15.3 °F -7.6 °F 66% 30.04 in 10.0 mi SW 11.5 mph - N/A   Clear
3:53 AM 1.4 °F -16.1 °F -7.6 °F 66% 30.03 in 10.0 mi SW 12.7 mph - N/A   Clear
4:13 AM 3.2 °F -14.6 °F -7.6 °F 61% 30.02 in 10.0 mi SW 13.8 mph - N/A   Clear
4:32 AM 3.2 °F -13.1 °F -7.6 °F 61% 30.02 in 10.0 mi SW 11.5 mph - N/A   Clear
4:53 AM 3.2 °F -13.1 °F -7.6 °F 61% 30.01 in 10.0 mi SW 11.5 mph - N/A   Clear
5:13 AM 1.4 °F -15.3 °F -7.6 °F 66% 30.00 in 10.0 mi SSW 11.5 mph - N/A   Clear
5:32 AM 3.2 °F -13.1 °F -7.6 °F 61% 29.99 in 10.0 mi SW 11.5 mph - N/A   Clear
5:53 AM 3.2 °F -13.9 °F -7.6 °F 61% 29.98 in 10.0 mi SSW 12.7 mph - N/A   Clear
6:13 AM 3.2 °F -13.9 °F -7.6 °F 61% 29.97 in 10.0 mi SW 12.7 mph - N/A   Clear
6:33 AM 3.2 °F -14.6 °F -5.8 °F 66% 29.96 in 10.0 mi SW 13.8 mph - N/A   Clear
6:53 AM 3.2 °F -15.3 °F -5.8 °F 66% 29.96 in 10.0 mi SW 15.0 mph - N/A   Clear
7:13 AM 3.2 °F -13.9 °F -5.8 °F 66% 29.95 in 10.0 mi SW 12.7 mph - N/A   Clear
7:33 AM 5.0 °F -13.0 °F -5.8 °F 61% 29.94 in 10.0 mi SSW 15.0 mph - N/A   Clear
7:53 AM 5.0 °F -10.0 °F -5.8 °F 61% 29.94 in 10.0 mi SSW 10.4 mph - N/A   Clear
8:13 AM 6.8 °F -8.6 °F -5.8 °F 56% 29.94 in 10.0 mi SW 11.5 mph - N/A   Clear
8:33 AM 8.6 °F -8.3 °F -4.0 °F 57% 29.93 in 10.0 mi SW 15.0 mph 20.7 mph N/A   Clear
8:53 AM 8.6 °F -8.3 °F -4.0 °F 57% 29.91 in 10.0 mi SSW 15.0 mph 20.7 mph N/A   Clear
9:13 AM 10.4 °F -6.0 °F -2.2 °F 57% 29.91 in 10.0 mi SSW 15.0 mph - N/A   Clear
9:33 AM 12.2 °F -3.1 °F -0.4 °F 57% 29.89 in 10.0 mi SSW 13.8 mph 18.4 mph N/A   Clear
9:53 AM 14.0 °F -0.2 °F 1.4 °F 57% 29.89 in 10.0 mi SSW 12.7 mph - N/A   Clear
10:13 AM 17.6 °F 2.2 °F 3.2 °F 53% 29.89 in 10.0 mi SW 17.3 mph - N/A   Clear
10:33 AM 19.4 °F 5.5 °F 3.2 °F 49% 29.88 in 10.0 mi SSW 15.0 mph - N/A   Clear
10:53 AM 19.4 °F 4.1 °F 5.0 °F 54% 29.87 in 10.0 mi SSW 18.4 mph - N/A   Clear
11:13 AM 23.0 °F 9.2 °F 6.8 °F 50% 29.86 in 10.0 mi SSW 17.3 mph 23.0 mph N/A   Clear
11:33 AM 24.8 °F 11.5 °F 8.6 °F 50% 29.84 in 10.0 mi SSW 17.3 mph 24.2 mph N/A   Clear
11:53 AM 26.6 °F 13.8 °F 8.6 °F 47% 29.82 in 10.0 mi SSW 17.3 mph 23.0 mph N/A   Clear
12:13 PM 28.4 °F 15.4 °F 8.6 °F 43% 29.80 in 10.0 mi SSW 19.6 mph 28.8 mph N/A   Clear
12:33 PM 30.2 °F 16.8 °F 8.6 °F 40% 29.78 in 10.0 mi SSW 23.0 mph 27.6 mph N/A   Clear
12:53 PM 30.2 °F 17.4 °F 8.6 °F 40% 29.77 in 10.0 mi SSW 20.7 mph 31.1 mph N/A   Clear
1:13 PM 32.0 °F 20.1 °F 8.6 °F 38% 29.75 in 10.0 mi SSW 19.6 mph 29.9 mph N/A   Clear
1:33 PM 32.0 °F 18.6 °F 10.4 °F 41% 29.72 in 10.0 mi SSW 25.3 mph 31.1 mph N/A   Clear
1:53 PM 33.8 °F 21.6 °F 12.2 °F 41% 29.71 in 10.0 mi SSW 23.0 mph 28.8 mph N/A   Clear
2:13 PM 33.8 °F 22.5 °F 12.2 °F 41% 29.70 in 10.0 mi SSW 19.6 mph 25.3 mph N/A   Clear
2:33 PM 35.6 °F 24.0 °F 12.2 °F 38% 29.67 in 10.0 mi SSW 23.0 mph 28.8 mph N/A   Clear
2:53 PM 35.6 °F 24.5 °F 12.2 °F 38% 29.66 in 10.0 mi SSW 20.7 mph 25.3 mph N/A   Clear
3:13 PM 35.6 °F 24.5 °F 12.2 °F 38% 29.65 in 10.0 mi SSW 20.7 mph 33.4 mph N/A   Clear
3:33 PM 35.6 °F 24.0 °F 12.2 °F 38% 29.65 in 10.0 mi SSW 23.0 mph 27.6 mph N/A   Clear
3:53 PM 35.6 °F 24.0 °F 12.2 °F 38% 29.64 in 10.0 mi SSW 23.0 mph 28.8 mph N/A   Clear
4:13 PM 37.4 °F 26.6 °F 12.2 °F 36% 29.63 in 10.0 mi SSW 21.9 mph 26.5 mph N/A   Clear
4:33 PM 37.4 °F 26.6 °F 12.2 °F 36% 29.63 in 10.0 mi SSW 21.9 mph 27.6 mph N/A   Scattered Clouds
4:53 PM 35.6 °F 25.2 °F 14.0 °F 41% 29.62 in 10.0 mi SSW 18.4 mph 25.3 mph N/A   Mostly Cloudy
5:13 PM 35.6 °F 25.2 °F 14.0 °F 41% 29.62 in 10.0 mi SSW 18.4 mph 24.2 mph N/A   Overcast
5:33 PM 35.6 °F 24.0 °F 14.0 °F 41% 29.61 in 10.0 mi SSW 23.0 mph - N/A   Mostly Cloudy
5:53 PM 35.6 °F 25.2 °F 14.0 °F 41% 29.60 in 10.0 mi SSW 18.4 mph 25.3 mph N/A   Clear
6:13 PM 33.8 °F 22.8 °F 14.0 °F 44% 29.60 in 10.0 mi SSW 18.4 mph 23.0 mph N/A   Clear
6:33 PM 33.8 °F 22.5 °F 14.0 °F 44% 29.60 in 10.0 mi SSW 19.6 mph - N/A   Clear
6:53 PM 33.8 °F 23.2 °F 14.0 °F 44% 29.60 in 10.0 mi SSW 17.3 mph 23.0 mph N/A   Clear
7:13 PM 32.0 °F 21.2 °F 14.0 °F 48% 29.59 in 10.0 mi SSW 16.1 mph - N/A   Scattered Clouds
7:33 PM 32.0 °F 21.2 °F 12.2 °F 44% 29.59 in 10.0 mi SSW 16.1 mph 21.9 mph N/A   Scattered Clouds
7:53 PM 32.0 °F 21.2 °F 12.2 °F 44% 29.59 in 10.0 mi SSW 16.1 mph - N/A   Scattered Clouds
8:13 PM 32.0 °F 22.1 °F 12.2 °F 44% 29.58 in 10.0 mi SSW 13.8 mph - N/A   Clear
8:33 PM 32.0 °F 22.1 °F 12.2 °F 44% 29.58 in 10.0 mi SSW 13.8 mph - N/A   Scattered Clouds
8:53 PM 32.0 °F 21.2 °F 12.2 °F 44% 29.56 in 10.0 mi SSW 16.1 mph 19.6 mph N/A   Scattered Clouds
9:13 PM 32.0 °F 21.6 °F 12.2 °F 44% 29.55 in 10.0 mi SSW 15.0 mph - N/A   Clear
9:33 PM 32.0 °F 21.6 °F 12.2 °F 44% 29.55 in 10.0 mi SSW 15.0 mph - N/A   Clear
9:53 PM 32.0 °F 21.2 °F 14.0 °F 48% 29.54 in 10.0 mi SSW 16.1 mph - N/A   Clear
10:13 PM 32.0 °F 22.5 °F 14.0 °F 48% 29.53 in 10.0 mi SSW 12.7 mph - N/A   Clear
10:33 PM 32.0 °F 22.5 °F 14.0 °F 48% 29.53 in 10.0 mi South 12.7 mph - N/A   Clear
10:52 PM 32.0 °F 22.1 °F 14.0 °F 48% 29.52 in 10.0 mi South 13.8 mph - N/A   Clear
11:13 PM 32.0 °F 22.5 °F 14.0 °F 48% 29.51 in 10.0 mi South 12.7 mph - N/A   Clear
11:33 PM 32.0 °F 22.1 °F 14.0 °F 48% 29.50 in 10.0 mi South 13.8 mph - N/A   Clear
11:52 PM 32.0 °F 22.1 °F 14.0 °F 48% 29.49 in 10.0 mi SSW 13.8 mph 18.4 mph N/A   Mostly Cloudy